TimeEST,TemperatureF,Dew PointF,Humidity,Sea Level PressureIn,VisibilityMPH,Wind Direction,Wind SpeedMPH,Gust SpeedMPH,PrecipitationIn,Events,Conditions,WindDirDegrees,DateUTC
12:15 AM,37.8,23.9,57,29.93,10.0,NW,15.0,28.8,N/A,,Overcast,310,2013-02-09 05:15:00
12:35 AM,37.4,23.9,58,29.93,10.0,NW,15.0,29.9,N/A,,Overcast,320,2013-02-09 05:35:00
12:55 AM,37.4,23.7,58,29.95,10.0,NW,16.1,35.7,N/A,,Overcast,320,2013-02-09 05:55:00
1:15 AM,36.7,23.4,59,29.95,10.0,NW,16.1,23.0,N/A,,Overcast,320,2013-02-09 06:15:00
1:35 AM,36.5,23.5,59,29.95,10.0,NW,13.8,24.2,N/A,,Overcast,310,2013-02-09 06:35:00
1:55 AM,36.1,23.7,61,29.96,10.0,NW,18.4,26.5,N/A,,Overcast,320,2013-02-09 06:55:00
2:15 AM,35.6,23.7,62,29.98,10.0,NW,13.8,23.0,N/A,,Overcast,310,2013-02-09 07:15:00
2:35 AM,35.1,23.4,62,30.00,10.0,NW,15.0,27.6,N/A,,Overcast,310,2013-02-09 07:35:00
2:55 AM,34.7,22.6,61,30.01,10.0,NW,17.3,32.2,N/A,,Overcast,310,2013-02-09 07:55:00
3:15 AM,34.2,22.8,63,30.01,10.0,NW,17.3,24.2,N/A,,Mostly Cloudy,310,2013-02-09 08:15:00
3:35 AM,34.0,22.1,62,30.02,10.0,NW,11.5,23.0,N/A,,Scattered Clouds,320,2013-02-09 08:35:00
3:55 AM,33.8,21.9,62,30.03,10.0,NW,13.8,25.3,N/A,,Scattered Clouds,320,2013-02-09 08:55:00
4:15 AM,33.8,21.2,60,30.04,10.0,NNW,12.7,23.0,N/A,,Clear,330,2013-02-09 09:15:00
4:35 AM,33.3,21.2,61,30.04,10.0,NW,13.8,23.0,N/A,,Clear,320,2013-02-09 09:35:00
4:55 AM,33.1,21.0,61,30.06,10.0,NW,16.1,25.3,N/A,,Clear,310,2013-02-09 09:55:00
5:15 AM,33.1,20.7,60,30.07,10.0,NW,13.8,25.3,N/A,,Scattered Clouds,320,2013-02-09 10:15:00
5:35 AM,32.5,20.7,62,30.07,10.0,NW,13.8,25.3,N/A,,Scattered Clouds,320,2013-02-09 10:35:00
5:55 AM,32.5,20.5,61,30.09,10.0,NNW,15.0,25.3,N/A,,Clear,330,2013-02-09 10:55:00
6:15 AM,32.2,20.3,62,30.10,10.0,NW,10.4,26.5,N/A,,Scattered Clouds,320,2013-02-09 11:15:00
6:35 AM,32.0,20.1,62,30.12,10.0,NNW,11.5,20.7,N/A,,Clear,330,2013-02-09 11:35:00
6:55 AM,32.0,19.9,61,30.12,10.0,NNW,13.8,20.7,N/A,,Clear,330,2013-02-09 11:55:00
7:15 AM,32.0,20.3,62,30.13,10.0,NW,11.5,23.0,N/A,,Clear,320,2013-02-09 12:15:00
7:35 AM,32.0,20.1,62,30.15,10.0,NW,15.0,23.0,N/A,,Clear,320,2013-02-09 12:35:00
7:55 AM,32.2,19.9,61,30.15,10.0,NNW,8.1,17.3,N/A,,Clear,330,2013-02-09 12:55:00
8:15 AM,32.5,19.2,58,30.17,10.0,NNW,11.5,26.5,N/A,,Clear,330,2013-02-09 13:15:00
8:35 AM,32.9,19.2,57,30.18,10.0,NW,10.4,25.3,N/A,,Clear,320,2013-02-09 13:35:00
8:55 AM,33.3,18.9,56,30.20,10.0,NW,13.8,29.9,N/A,,Scattered Clouds,320,2013-02-09 13:55:00
9:15 AM,33.3,19.2,56,30.21,10.0,NNW,15.0,23.0,N/A,,Mostly Cloudy,330,2013-02-09 14:15:00
9:35 AM,34.3,19.4,54,30.21,10.0,WNW,12.7,18.4,N/A,,Mostly Cloudy,300,2013-02-09 14:35:00
9:55 AM,34.2,18.9,54,30.21,10.0,NW,16.1,27.6,N/A,,Scattered Clouds,320,2013-02-09 14:55:00
10:15 AM,35.4,19.4,52,30.21,10.0,NW,12.7,24.2,N/A,,Clear,310,2013-02-09 15:15:00
10:35 AM,36.5,19.4,50,30.22,10.0,NW,16.1,25.3,N/A,,Clear,320,2013-02-09 15:35:00
10:55 AM,36.0,19.2,51,30.23,10.0,NW,13.8,23.0,N/A,,Clear,320,2013-02-09 15:55:00
11:15 AM,36.5,18.9,49,30.24,10.0,NNW,13.8,23.0,N/A,,Clear,330,2013-02-09 16:15:00
11:35 AM,37.0,19.2,49,30.25,10.0,WNW,10.4,21.9,N/A,,Clear,290,2013-02-09 16:35:00
11:55 AM,37.6,19.2,48,30.24,10.0,NNW,15.0,23.0,N/A,,Clear,340,2013-02-09 16:55:00
12:15 PM,38.5,19.2,46,30.24,10.0,NNW,12.7,20.7,N/A,,Clear,340,2013-02-09 17:15:00
12:35 PM,39.2,19.0,44,30.24,10.0,NW,12.7,20.7,N/A,,Clear,320,2013-02-09 17:35:00
12:55 PM,39.6,19.6,45,30.23,10.0,NW,15.0,24.2,N/A,,Clear,320,2013-02-09 17:55:00
1:15 PM,39.6,18.5,43,30.24,10.0,WNW,12.7,23.0,N/A,,Clear,300,2013-02-09 18:15:00
1:35 PM,40.5,18.7,42,30.23,10.0,WNW,12.7,20.7,N/A,,Clear,300,2013-02-09 18:35:00
1:55 PM,41.9,18.9,40,30.23,10.0,WNW,12.7,18.4,N/A,,Clear,300,2013-02-09 18:55:00
2:15 PM,41.5,18.7,40,30.24,10.0,WNW,15.0,21.9,N/A,,Clear,300,2013-02-09 19:15:00
2:35 PM,42.3,18.9,39,30.25,10.0,NW,10.4,17.3,N/A,,Clear,310,2013-02-09 19:35:00
2:55 PM,42.6,18.7,38,30.25,10.0,NNW,10.4,16.1,N/A,,Clear,340,2013-02-09 19:55:00
3:15 PM,43.0,18.3,37,30.27,10.0,NW,10.4,20.7,N/A,,Clear,310,2013-02-09 20:15:00
3:35 PM,42.4,18.0,37,30.27,10.0,NNW,11.5,19.6,N/A,,Clear,330,2013-02-09 20:35:00
3:55 PM,42.4,17.2,36,30.27,10.0,NW,13.8,19.6,N/A,,Clear,310,2013-02-09 20:55:00
4:15 PM,42.1,16.7,36,30.28,10.0,NNW,11.5,19.6,N/A,,Clear,340,2013-02-09 21:15:00
4:35 PM,41.9,17.2,37,30.28,10.0,NNW,8.1,-,N/A,,Clear,330,2013-02-09 21:35:00
4:55 PM,41.5,16.5,36,30.28,10.0,NW,11.5,-,N/A,,Clear,320,2013-02-09 21:55:00
5:15 PM,40.5,16.2,37,30.30,10.0,NW,10.4,16.1,N/A,,Clear,320,2013-02-09 22:15:00
5:35 PM,39.7,16.5,39,30.30,10.0,NNW,6.9,-,N/A,,Clear,340,2013-02-09 22:35:00
5:55 PM,38.5,16.2,40,30.31,10.0,NNW,5.8,-,N/A,,Clear,340,2013-02-09 22:55:00
6:15 PM,38.5,15.8,40,-9999,10.0,NW,4.6,-,N/A,,Clear,320,2013-02-09 23:15:00
6:35 PM,38.5,15.4,39,30.33,10.0,NW,4.6,-,N/A,,Clear,320,2013-02-09 23:35:00
6:55 PM,37.6,16.0,41,30.34,10.0,NNW,3.5,-,N/A,,Clear,330,2013-02-09 23:55:00
7:15 PM,37.6,17.4,44,30.35,10.0,NW,4.6,-,N/A,,Clear,310,2013-02-10 00:15:00
7:35 PM,37.4,16.9,43,30.35,10.0,NNW,5.8,-,N/A,,Clear,330,2013-02-10 00:35:00
7:55 PM,36.7,16.5,44,30.36,10.0,NW,5.8,-,N/A,,Clear,320,2013-02-10 00:55:00
8:15 PM,36.3,16.5,45,30.35,10.0,NNW,3.5,-,N/A,,Clear,330,2013-02-10 01:15:00
8:35 PM,35.4,16.7,47,30.35,10.0,North,3.5,-,N/A,,Clear,350,2013-02-10 01:35:00
8:55 PM,33.3,18.7,55,30.36,10.0,NNW,3.5,-,N/A,,Clear,330,2013-02-10 01:55:00
9:15 PM,35.6,16.5,46,30.37,10.0,Calm,Calm,-,N/A,,Clear,0,2013-02-10 02:15:00
9:35 PM,34.0,17.6,51,30.37,10.0,Calm,Calm,-,N/A,,Clear,0,2013-02-10 02:35:00
9:50 PM,32.0,18.5,58,30.38,10.0,Calm,Calm,-,N/A,,Clear,0,2013-02-10 02:50:00
10:15 PM,29.5,21.6,72,30.38,10.0,Calm,Calm,-,N/A,,Clear,0,2013-02-10 03:15:00
10:35 PM,31.6,17.8,57,30.38,10.0,Calm,Calm,-,N/A,,Clear,0,2013-02-10 03:35:00
10:55 PM,28.6,21.4,74,30.39,10.0,Calm,Calm,-,N/A,,Clear,0,2013-02-10 03:55:00
11:15 PM,27.7,22.5,81,30.39,10.0,Calm,Calm,-,N/A,,Clear,0,2013-02-10 04:15:00
11:35 PM,28.0,21.2,76,30.40,10.0,Calm,Calm,-,N/A,,Clear,0,2013-02-10 04:35:00
11:50 PM,27.3,21.0,77,30.40,10.0,Calm,Calm,-,N/A,,Clear,0,2013-02-10 04:50:00